Temperature
6 6 6 6 6 6 6 6 6 6 7 7 7 7 7 7 7 7 7 7 7 7 7 7 7 7 7 7 7 7 7 6 6 6 6 5 5 5 5 5 5 5 5
6 5 5 5 5 5 5 6 6 6 6 6 6 6 7 7 7 7 7 7 7 7 7 7 7 6 6 6 6 6 6 6 6 6 5 5 4 4 5 5 5 5 5
5 4 4 4 4 5 5 5 5 5 6 6 6 6 6 6 6 6 6 6 6 6 6 6 6 6 6 6 6 6 6 6 5 5 5 5 4 4 4 4 4 4 4
4 4 4 4 4 4 4 5 5 5 5 5 5 5 5 5 5 6 6 6 6 6 6 6 6 6 5 5 5 5 5 5 5 5 5 4 4 4 3 3 3 4 4
3 3 3 3 3 3 4 4 4 4 4 4 4 4 5 5 5 5 5 5 5 5 5 5 5 5 5 5 5 5 5 5 5 4 4 4 4 4 4 3 3 3 3
3 3 3 3 3 3 3 3 4 4 4 4 4 4 4 4 5 5 5 5 5 5 5 5 5 5 5 5 5 5 4 4 4 4 4 4 4 4 3 3 2 2 2
3 2 2 2 2 2 2 3 3 3 3 3 4 3 3 4 4 4 4 4 4 4 4 4 4 4 4 4 4 4 4 4 4 4 3 3 3 3 3 3 2 2 2
2 2 1 1 1 2 2 2 2 3 3 3 3 3 3 3 3 4 4 4 4 4 4 4 4 4 4 4 4 4 4 3 3 3 3 3 3 3 3 3 2 2 1
1 1 1 1 1 1 1 2 2 2 2 2 3 3 3 3 3 3 3 3 3 4 4 3 3 3 3 3 3 3 3 3 3 2 2 2 2 2 2 2 2 2 1
1 0 0 0 0 0 1 1 1 1 2 2 2 2 3 3 3 3 3 3 3 3 3 3 3 3 3 3 3 3 2 2 2 2 2 2 2 2 2 2 1 1 1
0 -0 -1 -0 -0 -0 0 0 0 1 1 1 2 2 2 2 2 2 2 2 2 2 2 2 2 2 2 2 2 2 2 2 2 1 1 1 1 1 1 1 1 1 1
-0 -1 -1 -1 -1 -1 -1 -0 -0 0 0 1 1 1 1 2 2 2 2 1 1 1 2 2 2 2 2 2 2 1 1 1 1 1 1 1 1 0 0 1 0 0 0
-1 -1 -2 -2 -2 -2 -2 -1 -1 -0 0 0 0 1 1 1 1 1 1 1 1 1 1 1 1 1 1 1 1 1 1 0 0 0 -0 -0 -0 0 0 0 0 -0 -0
-2 -2 -2 -3 -2 -2 -2 -2 -1 -1 -1 -0 -0 -0 0 0 0 0 0 0 0 0 0 0 0 0 1 0 0 0 -0 -0 -0 -1 -1 -1 -1 -1 -1 -1 -1 -1 -1
-3 -3 -3 -3 -3 -3 -2 -2 -2 -1 -1 -1 -1 -1 -1 -1 -1 -0 -0 -1 -1 -1 -1 -0 -0 -0 -0 -0 -0 -1 -1 -1 -1 -1 -1 -1 -1 -1 -2 -2 -1 -2 -2
-4 -4 -4 -4 -3 -3 -3 -2 -2 -2 -2 -1 -1 -1 -1 -1 -1 -1 -1 -1 -1 -1 -1 -1 -1 -1 -1 -1 -1 -1 -2 -2 -2 -2 -2 -2 -2 -2 -2 -2 -2 -2 -2
-4 -4 -4 -4 -3 -3 -3 -3 -3 -3 -2 -2 -2 -2 -2 -2 -2 -2 -2 -2 -2 -2 -2 -2 -2 -2 -2 -2 -2 -2 -2 -3 -3 -3 -3 -3 -3 -3 -3 -3 -3 -3 -3
-4 -4 -4 -4 -3 -3 -3 -3 -3 -3 -3 -3 -3 -3 -2 -2 -2 -2 -2 -2 -3 -3 -3 -3 -3 -3 -3 -3 -3 -3 -3 -3 -3 -3 -4 -4 -4 -4 -4 -4 -4 -4 -4
-4 -4 -4 -4 -4 -4 -4 -4 -4 -4 -4 -3 -3 -3 -3 -3 -3 -3 -3 -3 -3 -3 -4 -4 -4 -4 -4 -4 -4 -4 -4 -4 -4 -4 -4 -5 -5 -5 -5 -5 -5 -5 -5
-5 -5 -4 -4 -4 -4 -4 -4 -4 -4 -4 -4 -4 -4 -4 -4 -4 -4 -4 -4 -4 -4 -4 -4 -4 -4 -4 -5 -5 -5 -5 -5 -5 -5 -5 -6 -6 -5 -5 -5 -5 -5 -5
-5 -5 -5 -5 -5 -5 -5 -5 -5 -5 -5 -5 -5 -5 -4 -4 -4 -5 -5 -5 -5 -5 -5 -5 -5 -5 -5 -6 -6 -6 -6 -6 -6 -6 -6 -6 -6 -6 -6 -6 -6 -6 -6
-6 -6 -6 -6 -6 -6 -6 -6 -6 -6 -6 -5 -5 -5 -5 -5 -5 -5 -5 -5 -5 -6 -6 -6 -6 -6 -6 -6 -6 -6 -6 -6 -7 -7 -7 -7 -7 -7 -7 -7 -7 -7 -7
-7 -7 -6 -6 -6 -6 -6 -7 -7 -6 -6 -6 -6 -6 -6 -6 -6 -6 -6 -6 -6 -6 -6 -7 -7 -7 -7 -7 -7 -7 -7 -7 -7 -7 -7 -7 -7 -7 -8 -8 -8 -8 -8
-7 -7 -7 -7 -7 -7 -7 -7 -7 -7 -7 -7 -7 -7 -7 -7 -7 -7 -7 -7 -7 -7 -7 -7 -8 -8 -8 -8 -8 -8 -8 -8 -8 -8 -8 -8 -8 -8 -8 -8 -9 -9 -9
-7 -7 -8 -8 -8 -8 -8 -8 -8 -8 -8 -8 -8 -8 -8 -8 -8 -8 -8 -8 -8 -8 -8 -8 -8 -8 -8 -8 -8 -8 -8 -9 -9 -9 -9 -9 -9 -9 -9 -9 -9 -9 -9
-8 -8 -8 -9 -9 -9 -9 -9 -9 -9 -9 -9 -9 -9 -9 -9 -9 -9 -9 -9 -9 -9 -9 -9 -9 -9 -9 -9 -9 -9 -9 -9 -9 -9 -9 -9 -9 -10 -10 -10 -10 -10 -10
Wind_Speed
2 3 3 3 3 3 3 3 4 4 3 3 3 3 3 3 3 5 6 7 7 8 8 6 7 6 4 5 6 5 6 4 4 4 3 3 4 5 4 6 7 8 9
2 3 3 3 2 2 2 2 3 4 3 2 2 2 3 3 3 5 6 7 7 7 7 7 6 5 4 5 5 6 4 3 3 3 3 2 2 3 2 3 4 5 7
2 2 2 2 2 2 2 2 2 3 3 3 2 2 3 2 2 3 3 5 7 7 7 7 6 5 5 5 5 6 5 4 2 2 3 3 2 0 1 2 3 3 3
1 2 2 2 3 1 1 2 2 3 3 3 3 4 3 2 2 4 3 4 6 6 7 7 6 6 4 5 5 4 4 5 4 1 1 2 3 3 1 1 1 2 2
1 1 2 2 2 2 1 1 2 2 3 3 3 3 3 2 2 3 4 4 4 6 6 7 6 5 4 5 5 4 4 3 4 3 1 2 2 2 2 2 1 1 1
1 1 1 2 1 1 1 1 1 2 3 3 4 4 4 3 4 4 4 4 3 4 6 6 6 5 4 4 5 4 5 4 4 3 2 2 2 2 2 2 2 1 1
2 1 1 1 1 1 1 0 1 2 3 4 4 4 4 4 5 5 5 4 3 3 5 5 5 5 5 5 5 4 4 4 5 4 3 2 2 2 2 3 2 1 0
1 1 1 1 1 0 0 1 1 1 2 3 3 4 4 3 3 4 4 4 3 3 4 5 5 5 6 6 5 4 3 4 4 4 3 2 2 2 3 3 3 2 0
1 1 1 1 1 1 1 1 1 1 2 3 3 3 4 4 4 4 3 3 3 4 4 5 5 5 5 6 5 4 4 4 3 3 3 3 2 2 2 2 3 4 2
1 1 1 1 1 1 2 2 1 1 1 1 2 3 3 4 4 4 4 4 3 4 5 4 5 5 5 5 5 4 3 4 3 3 4 3 2 3 3 3 2 2 3
0 1 1 1 1 1 1 2 2 2 1 0 1 2 3 4 4 4 4 4 4 4 4 4 4 5 5 5 5 5 5 5 4 4 4 4 3 3 3 3 2 2 2
1 1 1 1 1 1 1 1 2 1 1 1 1 1 3 4 4 4 4 4 4 5 5 4 4 5 5 5 5 6 5 6 6 5 5 5 4 4 3 3 3 3 2
2 1 1 1 1 2 2 2 2 2 1 0 1 2 3 4 4 4 4 4 4 4 4 4 4 4 5 5 5 5 5 5 5 5 6 5 5 5 3 4 4 3 2
1 2 2 2 2 2 2 2 2 1 1 0 1 2 2 3 4 4 4 4 4 4 4 4 4 4 4 4 5 4 4 4 4 4 5 5 6 6 5 4 4 4 3
2 2 2 2 2 2 2 2 2 1 0 1 1 1 2 2 3 4 4 4 4 4 4 4 3 3 3 4 4 4 4 4 4 4 4 4 5 6 5 4 4 4 4
2 3 2 3 3 2 2 2 2 1 1 2 1 2 2 3 3 3 4 4 4 4 4 4 4 3 3 5 6 5 4 4 4 4 4 4 4 5 6 5 5 5 5
3 3 2 2 2 2 2 2 2 1 1 1 1 2 2 3 2 3 3 4 4 3 4 4 3 3 3 4 5 5 4 4 4 4 4 3 4 5 4 4 3 3 4
3 3 3 2 2 2 2 1 1 0 1 1 1 2 2 2 2 3 3 3 3 4 4 4 3 3 3 4 4 4 4 3 3 3 4 4 4 5 5 4 3 1 1
2 2 2 2 1 1 1 1 1 1 1 1 1 1 2 2 3 3 2 2 3 3 3 3 4 3 3 4 5 4 3 3 3 2 3 4 4 6 7 5 4 2 1
2 2 2 2 1 1 1 0 0 1 1 1 1 1 2 2 3 3 2 2 2 2 3 3 3 3 3 4 4 4 3 3 3 2 2 3 4 6 6 5 5 4 3
2 2 2 2 2 2 1 1 1 1 1 1 1 2 2 2 3 3 2 3 3 3 3 3 2 3 3 3 4 4 3 3 3 2 2 2 5 5 5 4 4 5 3
3 2 2 2 2 2 2 2 2 2 2 2 2 2 2 2 3 3 3 3 3 3 3 2 2 2 2 1 2 3 3 3 3 3 2 3 4 4 4 3 4 4 3
2 1 2 2 2 2 2 2 2 2 2 3 3 3 3 2 2 3 3 3 3 3 2 2 2 1 1 1 1 2 3 2 2 2 3 3 3 2 2 3 3 2 2
2 1 2 2 2 2 2 2 2 2 3 3 3 3 3 3 2 2 2 2 3 3 2 2 2 1 1 1 1 1 1 1 1 1 2 2 2 2 1 1 1 1 2
1 1 1 1 1 2 2 2 2 3 3 3 2 2 3 2 2 2 2 2 2 2 3 2 2 2 1 1 1 1 1 2 2 2 1 1 1 1 1 1 1 1 1
1 1 1 1 2 2 2 2 2 2 3 2 2 2 2 2 2 2 3 3 3 3 2 1 1 1 1 1 0 1 1 2 3 2 2 2 2 2 2 2 2 1 1
Wind_Direction
177 140 127 119 107 101 118 150 152 152 143 140 143 146 153 153 144 140 144 144 143 144 138 132 130 129 139 139 132 125 117 112 112 94 79 60 62 70 67 75 74 72 68
179 151 130 123 127 129 136 145 152 153 146 135 141 147 147 157 155 145 148 150 149 150 146 140 142 140 137 137 140 136 131 135 136 121 120 101 37 27 52 74 82 76 72
171 154 147 144 144 165 176 175 150 139 135 127 114 111 102 101 133 145 156 153 154 154 152 152 149 149 148 155 154 152 142 152 163 133 130 141 180 152 4 55 78 79 79
98 141 156 170 175 187 171 158 156 146 133 134 145 152 154 161 178 164 157 153 152 152 154 154 154 155 152 157 162 154 152 149 162 148 79 126 139 143 157 324 48 75 80
129 160 162 166 164 159 154 151 162 153 150 155 162 159 151 143 137 142 145 152 154 153 155 156 154 157 157 157 158 159 162 161 161 154 134 107 112 125 151 196 245 9 5
114 120 93 89 77 104 131 160 162 181 170 171 173 175 165 153 151 149 158 159 160 155 155 160 160 161 158 160 163 167 169 171 157 152 148 150 150 173 159 168 176 205 284
113 108 93 85 91 94 126 164 190 203 187 186 185 186 177 166 173 168 167 163 162 165 169 166 166 165 167 167 164 166 172 168 164 164 162 156 155 148 137 142 159 152 227
95 102 94 81 61 28 326 233 236 246 203 199 196 186 171 174 182 170 166 170 172 169 161 166 166 165 167 170 166 160 164 160 163 165 156 154 154 139 143 152 148 135 238
68 60 60 41 25 8 331 294 276 288 229 210 199 185 173 175 175 169 162 165 160 153 152 162 163 162 164 167 163 166 167 157 159 161 159 158 160 146 147 148 156 154 175
45 22 20 17 7 349 332 329 315 286 261 216 200 187 177 177 166 158 157 158 157 151 152 157 166 162 162 164 161 160 159 158 163 159 161 162 159 153 150 158 168 155 163
20 5 359 3 6 354 331 330 329 324 279 213 207 178 173 166 157 157 158 155 154 157 158 164 169 166 166 163 164 167 166 169 170 171 170 172 162 163 165 161 162 157 147
29 37 8 3 4 354 330 323 315 322 276 178 171 171 159 154 155 156 153 150 159 164 162 166 171 175 171 168 172 174 176 179 180 182 176 179 173 171 172 170 173 172 166
23 33 21 358 339 330 324 317 316 333 337 112 152 145 153 159 162 157 155 157 160 162 159 167 175 180 176 177 176 175 180 184 184 182 182 182 174 180 180 176 176 173 162
24 15 351 338 323 315 313 311 314 333 326 61 150 157 154 161 161 152 152 154 156 158 161 173 174 178 179 175 168 168 171 176 181 180 180 183 184 186 183 185 180 166 157
343 339 328 326 327 324 321 313 320 332 152 129 140 151 137 132 138 147 150 151 154 161 163 166 165 170 180 172 165 171 170 169 173 178 182 186 185 185 188 189 176 166 165
321 323 327 325 317 320 322 314 314 310 128 125 123 123 118 125 135 144 148 149 156 158 159 162 165 175 188 183 180 172 169 171 175 180 178 177 181 188 198 206 196 184 178
310 310 304 304 312 308 306 290 304 326 102 105 102 106 116 129 139 139 144 157 161 159 164 164 164 172 181 183 182 181 163 165 173 172 172 183 184 183 174 192 206 208 211
313 316 320 323 330 339 336 326 338 100 113 116 115 113 114 125 135 140 149 160 161 165 167 164 162 163 177 186 184 178 149 150 163 171 173 173 172 179 174 167 167 183 229
321 317 321 318 326 331 326 355 359 92 111 131 138 135 141 143 142 144 150 152 148 158 162 158 158 160 174 194 190 171 143 147 153 159 165 170 171 190 191 169 163 168 202
360 356 354 1 4 348 7 91 226 124 129 130 126 126 137 143 146 145 142 134 136 144 152 151 153 158 166 192 190 172 151 153 157 153 163 196 198 205 199 175 169 181 198
15 20 19 17 13 21 48 95 79 78 74 71 80 90 103 122 131 126 125 128 129 121 133 139 145 150 165 186 184 178 164 168 164 169 171 192 210 214 205 191 180 198 191
14 19 34 27 21 34 63 67 49 43 63 76 84 88 95 103 110 119 119 121 126 126 123 128 131 137 155 172 176 182 186 179 164 173 173 189 202 206 204 200 199 208 199
357 23 59 43 26 36 68 71 38 52 68 74 80 87 86 88 97 115 118 117 121 124 124 124 129 125 116 131 153 181 182 181 167 172 181 187 195 201 185 207 220 214 191
356 45 78 69 35 33 45 55 55 68 80 79 78 83 90 88 85 90 105 121 130 131 129 133 135 134 125 132 150 154 147 148 149 145 173 192 194 183 182 217 227 197 195
7 56 79 65 38 37 41 51 61 74 77 80 83 83 86 93 93 88 91 99 116 143 144 150 150 148 166 215 216 163 162 164 184 158 129 136 142 160 167 172 172 166 183
26 45 52 51 43 46 43 44 55 78 88 84 83 88 91 91 93 92 73 69 85 94 99 117 146 146 193 241 223 164 183 208 198 165 156 177 182 188 193 195 196 192 195
Height
1477 1478 1479 1479 1480 1482 1483 1485 1487 1489 1491 1492 1495 1497 1500 1504 1507 1509 1511 1514 1516 1518 1520 1522 1525 1527 1529 1530 1532 1534 1536 1538 1540 1542 1543 1545 1547 1548 1549 1550 1550 1551 1552
1474 1475 1476 1477 1478 1479 1480 1482 1484 1486 1488 1490 1492 1495 1498 1501 1504 1506 1509 1511 1513 1515 1518 1520 1522 1524 1526 1528 1530 1531 1533 1535 1538 1539 1541 1543 1547 1547 1547 1548 1549 1549 1550
1471 1472 1473 1474 1475 1476 1478 1479 1481 1483 1485 1487 1489 1492 1494 1497 1500 1502 1505 1508 1511 1512 1514 1517 1519 1521 1523 1525 1527 1529 1530 1532 1535 1537 1539 1541 1542 1543 1545 1545 1546 1547 1548
1469 1470 1471 1472 1472 1474 1476 1477 1479 1480 1482 1484 1486 1488 1490 1492 1495 1498 1502 1505 1507 1510 1512 1514 1516 1518 1520 1522 1524 1526 1528 1530 1532 1534 1536 1538 1539 1541 1541 1543 1544 1544 1545
1468 1468 1469 1470 1471 1472 1473 1475 1477 1478 1480 1481 1483 1485 1487 1490 1493 1495 1498 1501 1504 1506 1509 1511 1513 1515 1517 1519 1521 1523 1525 1527 1529 1531 1533 1534 1536 1537 1538 1539 1540 1541 1542
1466 1467 1467 1468 1469 1470 1471 1472 1473 1475 1477 1478 1480 1482 1484 1486 1489 1491 1494 1497 1500 1503 1505 1507 1509 1511 1513 1515 1517 1520 1522 1524 1526 1528 1530 1531 1532 1534 1535 1535 1536 1537 1539
1464 1465 1465 1465 1466 1467 1468 1469 1470 1472 1474 1476 1477 1479 1481 1483 1486 1488 1490 1493 1496 1498 1501 1503 1506 1508 1510 1512 1514 1516 1518 1520 1522 1524 1526 1528 1529 1531 1532 1533 1533 1534 1535
1463 1463 1463 1464 1464 1465 1465 1467 1468 1469 1471 1473 1474 1477 1478 1480 1483 1485 1487 1490 1492 1495 1498 1500 1502 1504 1507 1509 1511 1512 1514 1517 1519 1520 1522 1524 1525 1527 1529 1530 1530 1531 1532
1461 1461 1462 1462 1462 1463 1463 1464 1465 1466 1468 1470 1471 1473 1475 1477 1479 1482 1484 1487 1489 1491 1494 1496 1499 1501 1503 1505 1507 1508 1510 1513 1515 1516 1518 1520 1521 1523 1525 1526 1527 1528 1528
1459 1460 1460 1460 1460 1461 1462 1462 1463 1463 1465 1466 1468 1470 1471 1473 1476 1478 1480 1483 1485 1487 1490 1492 1495 1497 1499 1501 1503 1504 1506 1509 1510 1512 1514 1516 1517 1519 1521 1522 1523 1524 1525
1458 1458 1458 1458 1458 1459 1459 1459 1460 1461 1462 1463 1464 1466 1468 1470 1472 1475 1477 1479 1481 1484 1486 1488 1491 1493 1494 1496 1498 1500 1502 1504 1506 1508 1510 1511 1513 1515 1516 1518 1519 1520 1521
1457 1457 1457 1457 1456 1456 1456 1456 1457 1458 1458 1460 1461 1462 1464 1467 1469 1471 1473 1476 1477 1480 1482 1484 1486 1488 1490 1492 1494 1496 1498 1500 1501 1503 1505 1507 1509 1510 1512 1513 1515 1516 1517
1456 1455 1455 1454 1454 1453 1453 1453 1454 1455 1456 1457 1458 1460 1461 1463 1465 1467 1470 1472 1474 1476 1478 1480 1482 1484 1486 1488 1490 1492 1494 1495 1497 1499 1501 1503 1504 1506 1507 1509 1511 1512 1513
1455 1454 1453 1452 1452 1451 1451 1451 1451 1452 1453 1454 1455 1456 1458 1460 1462 1464 1466 1468 1470 1472 1474 1476 1478 1480 1482 1484 1485 1487 1489 1491 1493 1495 1497 1498 1500 1501 1503 1505 1506 1507 1509
1453 1452 1451 1450 1449 1448 1448 1448 1448 1449 1450 1451 1452 1453 1455 1457 1459 1460 1462 1464 1466 1468 1470 1472 1474 1476 1478 1479 1481 1483 1485 1487 1489 1490 1492 1494 1496 1497 1499 1501 1502 1503 1504
1451 1450 1449 1447 1446 1445 1445 1445 1446 1446 1447 1448 1449 1451 1453 1454 1455 1457 1459 1461 1463 1465 1467 1469 1470 1472 1474 1476 1478 1479 1481 1483 1484 1486 1488 1490 1491 1493 1495 1496 1497 1499 1500
1448 1447 1446 1444 1444 1443 1443 1443 1444 1444 1445 1446 1447 1449 1450 1452 1453 1454 1456 1457 1459 1461 1463 1465 1467 1468 1470 1472 1474 1476 1477 1479 1480 1482 1484 1485 1487 1489 1490 1492 1493 1494 1495
1445 1444 1443 1442 1442 1441 1441 1442 1442 1442 1443 1444 1445 1447 1448 1449 1450 1452 1453 1455 1456 1458 1460 1461 1463 1465 1467 1469 1470 1472 1473 1475 1476 1478 1480 1481 1483 1485 1486 1488 1489 1490 1491
1444 1442 1441 1440 1439 1439 1439 1440 1440 1441 1441 1442 1443 1444 1445 1446 1447 1449 1450 1452 1453 1455 1457 1458 1460 1461 1463 1465 1466 1468 1469 1471 1473 1475 1476 1478 1479 1481 1483 1484 1485 1486 1487
1441 1440 1438 1438 1437 1437 1437 1438 1438 1439 1439 1440 1441 1442 1443 1444 1445 1446 1448 1449 1451 1452 1454 1455 1457 1458 1460 1462 1463 1464 1465 1467 1469 1471 1472 1474 1476 1477 1479 1480 1481 1481 1483
1439 1438 1436 1436 1435 1435 1436 1436 1436 1437 1437 1438 1439 1440 1441 1442 1443 1444 1445 1447 1448 1450 1451 1453 1455 1456 1457 1459 1460 1461 1463 1464 1465 1467 1468 1470 1472 1474 1475 1476 1477 1478 1479
1436 1436 1435 1434 1434 1434 1434 1434 1434 1435 1436 1436 1437 1438 1439 1440 1441 1442 1443 1445 1446 1447 1449 1450 1452 1453 1455 1456 1457 1459 1460 1462 1462 1463 1465 1467 1469 1470 1472 1473 1474 1475 1476
1435 1434 1434 1433 1433 1433 1433 1433 1434 1434 1434 1435 1435 1436 1437 1438 1439 1440 1441 1443 1444 1445 1446 1448 1449 1451 1453 1454 1455 1456 1458 1459 1460 1460 1462 1464 1465 1467 1468 1469 1470 1471 1472
1433 1433 1433 1432 1432 1432 1432 1432 1432 1433 1433 1433 1434 1435 1436 1437 1438 1439 1440 1441 1442 1443 1444 1446 1447 1449 1450 1452 1453 1453 1454 1455 1457 1458 1459 1460 1462 1463 1464 1465 1466 1467 1468
1432 1432 1431 1430 1430 1430 1431 1431 1431 1432 1432 1433 1433 1434 1435 1436 1437 1438 1439 1440 1441 1442 1443 1444 1445 1447 1448 1449 1451 1451 1452 1453 1454 1455 1456 1457 1458 1459 1460 1462 1463 1464 1464
1431 1430 1430 1429 1430 1430 1430 1430 1431 1431 1431 1432 1433 1433 1434 1435 1436 1437 1438 1439 1441 1442 1443 1444 1445 1445 1447 1447 1448 1449 1450 1450 1451 1452 1452 1453 1455 1456 1457 1458 1459 1460 1460